Location: Tucson
(32.2217°N, 110.9265°W)
Time: 00:35:59
(UTC-07:00)

Amateur Radio Satellites - All Passes

Search period start: 25 November 2017 00:05
Search period end: 26 November 2017 00:05
Location: Tucson, 32.2217°N, 110.9265°W

Satellite Date Start Highest point End Downlink Frequencies (MHz)
Time Altitude Azimuth
DUCHIFAT 1 25 Nov 00:07:10 00:11:06 41° 99° (E) 00:15:00 145.980
EO-79 25 Nov 00:19:43 00:23:55 84° 102° (ESE) 00:28:05 145.935-145.965
NANOSAT C BR1 25 Nov 00:20:03 00:24:13 73° 102° (ESE) 00:28:22 145.865
VELOX 1 25 Nov 00:28:41 00:33:07 90° 78° (ENE) 00:37:35 145.980
ESTCUBE 1 25 Nov 00:30:31 00:32:10 12° 267° (W) 00:33:49 437.505/2401.250
POLYITAN 1 25 Nov 00:36:20 00:40:27 59° 284° (WNW) 00:44:33 437.675
BUGSAT 1 25 Nov 00:43:16 00:46:25 22° 97° (E) 00:49:34 437.445
SPROUT 25 Nov 00:53:49 00:57:24 26° 263° (W) 01:01:00 437.525
QB50P2 25 Nov 01:00:32 01:04:03 26° 288° (WNW) 01:07:32 145.880/145.840
DX 1 25 Nov 01:00:49 01:04:53 40° 73° (ENE) 01:09:00 434.975-435.025
50 SAT 25 Nov 01:05:05 01:08:11 47° 76° (ENE) 01:11:18 437.505
Oscar 19 25 Nov 01:06:23 01:10:34 25° 96° (E) 01:14:44 437.125/150
BEESAT 2 25 Nov 01:17:16 01:18:43 12° 108° (ESE) 01:20:11 435.950
nSIGHT-1 25 Nov 01:22:29 01:23:21 11° 30° (NNE) 01:24:13 .
RS-15 25 Nov 01:23:10 01:31:13 20° 34° (NE) 01:38:58 29.354- 29.394
BEESAT 3 25 Nov 01:29:56 01:33:53 80° 117° (ESE) 01:37:53 437.485
UKube-1 25 Nov 01:33:27 01:37:42 60° 75° (ENE) 01:41:58 .
DUCHIFAT 1 25 Nov 01:44:37 01:46:20 12° 292° (WNW) 01:48:02 145.980
Gurwin Techsat 1B 25 Nov 02:05:23 02:10:42 71° 102° (ESE) 02:15:59 435.225
AO-91 25 Nov 02:10:24 02:14:35 60° 284° (WNW) 02:18:19 145.960
MOZHAYETS 4 25 Nov 02:16:15 02:20:10 29° 72° (ENE) 02:24:04
BUGSAT 1 25 Nov 02:18:39 02:21:36 20° 290° (WNW) 02:24:32 437.445
ISS 25 Nov 02:19:04 02:21:56 28° 39° (NE) 02:24:47 437.550
BEESAT 25 Nov 02:32:13 02:36:30 34° 72° (ENE) 02:40:47 436.000
DX 1 25 Nov 02:39:06 02:41:11 13° 266° (W) 02:43:16 434.975-435.025
CUBESAT XI-V 25 Nov 02:42:14 02:43:34 11° 66° (ENE) 02:44:55 437.345
ITUPSAT 1 25 Nov 02:44:38 02:49:11 46° 73° (ENE) 02:53:44 437.325
Oscar 19 25 Nov 02:45:18 02:49:48 31° 290° (WNW) 02:54:18 437.125/150
BEESAT 2 25 Nov 02:52:13 02:56:00 41° 301° (WNW) 02:59:50 435.950
nSIGHT-1 25 Nov 02:56:44 02:59:55 76° 227° (SW) 03:03:04 .
M-CUBED/EXP-1 PRIME 25 Nov 02:57:55 03:02:24 47° 104° (ESE) 03:06:49 437.505
AO-85 25 Nov 03:00:44 03:04:34 70° 115° (ESE) 03:08:29 145.980
ITAMSAT 1 25 Nov 03:08:48 03:12:29 19° 95° (E) 03:16:08 435.822/435.867
RS-15 25 Nov 03:34:27 03:46:13 72° 60° (ENE) 03:57:17 29.354- 29.394
Gurwin Techsat 1B 25 Nov 03:48:06 03:49:57 12° 296° (WNW) 03:51:49 435.225
AO-7 25 Nov 03:50:46 03:59:08 72° 105° (ESE) 04:07:28 .
MOZHAYETS 4 25 Nov 03:53:53 03:57:15 20° 264° (W) 04:00:37
ISS 25 Nov 03:55:53 03:58:14 19° 232° (SW) 04:00:35 437.550
BEESAT 25 Nov 04:10:56 04:14:16 19° 265° (W) 04:17:37 436.000
CUBESAT XI-V 25 Nov 04:15:53 04:20:22 57° 260° (W) 04:24:55 437.345
ITUPSAT 1 25 Nov 04:24:43 04:27:09 14° 266° (W) 04:29:36 437.325
M-CUBED/EXP-1 PRIME 25 Nov 04:33:37 04:36:19 16° 297° (WNW) 04:39:00 437.505
ITAMSAT 1 25 Nov 04:47:13 04:52:00 39° 289° (WNW) 04:56:46 435.822/435.867
YUBILEINY 25 Nov 04:53:26 05:01:45 51° 90° (E) 05:10:07 435.215
KKS-1 25 Nov 05:11:47 05:16:12 63° 259° (W) 05:20:40 437.445
DOVE 4 25 Nov 05:13:48 05:18:49 68° 101° (E) 05:23:29 437.250
STARS 25 Nov 05:23:05 05:27:26 63° 75° (ENE) 05:31:49 437.465
XW-2C 25 Nov 05:35:10 05:37:38 16° 95° (E) 05:40:04 145.795 - 145.815
XW-2F 25 Nov 05:41:22 05:44:02 18° 95° (E) 05:46:41 145.980 - 146.000
LilacSat-2 25 Nov 05:42:22 05:45:25 22° 96° (E) 05:48:29 437.200
AO-7 25 Nov 05:45:08 05:51:03 22° 301° (WNW) 05:57:00 .
RS-15 25 Nov 05:48:46 05:57:20 25° 258° (WSW) 06:05:40 29.354- 29.394
KAITUO 1B 25 Nov 06:00:51 06:03:59 24° 97° (E) 06:07:06 145.475/437.950
SO-50 25 Nov 06:19:36 06:24:17 88° 55° (NE) 06:29:01 436.795
XW-2D 25 Nov 06:27:06 06:30:55 88° 282° (WNW) 06:34:45 145.860 - 145.880
NUDT-PHONESAT 25 Nov 06:36:52 06:40:36 78° 101° (ESE) 06:44:19 437.300
XW-2B 25 Nov 06:42:10 06:45:54 56° 284° (WNW) 06:49:39 145.730 - 145.750
FALCONSAT 3 25 Nov 06:45:15 06:48:20 26° 151° (SSE) 06:51:27 435.103
HO-68 25 Nov 06:46:39 06:53:10 37° 99° (E) 06:59:38 435.675
CUTE-I 25 Nov 06:51:15 06:56:38 81° 284° (WNW) 07:01:57 437.470
YUBILEINY 25 Nov 06:51:28 06:58:44 29° 286° (WNW) 07:06:06 435.215
DOVE 4 25 Nov 06:54:34 06:55:43 11° 296° (WNW) 06:56:52 437.250
STRAND 1 25 Nov 06:59:46 07:04:53 68° 74° (ENE) 07:09:59 437.568
FO-29 25 Nov 07:08:30 07:13:48 25° 64° (ENE) 07:19:32 435.910
XW-2C 25 Nov 07:08:35 07:11:43 24° 287° (WNW) 07:14:51 145.795 - 145.815
XW-2F 25 Nov 07:15:02 07:18:00 22° 288° (WNW) 07:20:59 145.980 - 146.000
LilacSat-2 25 Nov 07:16:47 07:19:29 18° 289° (WNW) 07:22:11 437.200
CUTE 1.7 + AOD 2 25 Nov 07:18:33 07:22:51 74° 102° (ESE) 07:27:06 437.475
CUBEBUG 2 25 Nov 07:26:37 07:30:37 47° 100° (E) 07:34:37 437.445
AAUSAT CUBESAT 2 25 Nov 07:33:10 07:36:34 24° 96° (E) 07:39:56 437.432
KAITUO 1B 25 Nov 07:35:20 07:37:42 16° 289° (WNW) 07:40:04 145.475/437.950
SEEDS 25 Nov 07:39:56 07:44:12 79° 102° (ESE) 07:48:26 437.485
ZACube-1 25 Nov 07:53:46 07:57:16 26° 97° (E) 08:00:48 437.345
UWE-3 25 Nov 08:13:30 08:17:39 81° 283° (WNW) 08:21:50 435.000/436.395/437.385
XW-2A 25 Nov 08:20:12 08:23:31 59° 283° (WNW) 08:26:51 145.665 - 145.685
FALCONSAT 3 25 Nov 08:23:34 08:27:13 82° 343° (NNW) 08:30:55 435.103
PCSat 25 Nov 08:23:50 08:28:36 30° 58° (ENE) 08:33:18 145.827
HO-68 25 Nov 08:34:24 08:40:44 35° 293° (WNW) 08:47:03 435.675
AO-73 25 Nov 08:41:17 08:45:27 88° 281° (W) 08:49:42 145.935
STRAND 1 25 Nov 08:43:35 08:44:24 10° 268° (W) 08:45:14 437.568
FO-29 25 Nov 08:51:49 08:58:12 53° 261° (W) 09:05:25 435.910
Oscar 11 25 Nov 08:52:23 08:56:44 80° 102° (ESE) 09:01:03 .
DELFI C3 25 Nov 08:56:15 08:58:11 13° 94° (E) 09:00:05 145.870
CUBEBUG 2 25 Nov 09:06:08 09:06:46 10° 293° (WNW) 09:07:23 437.445
UNISAT 6 25 Nov 09:06:13 09:10:31 43° 74° (ENE) 09:14:44 437.425
AAUSAT CUBESAT 2 25 Nov 09:08:41 09:11:50 21° 289° (WNW) 09:14:57 437.432
TIGRISAT 25 Nov 09:09:15 09:13:32 42° 74° (ENE) 09:17:44 435.000
ZACube-1 25 Nov 09:30:23 09:33:21 19° 289° (WNW) 09:36:20 437.345
BEESAT 3 25 Nov 09:53:08 09:54:12 11° 50° (NE) 09:55:15 437.485
FALCONSAT 3 25 Nov 10:02:56 10:06:31 49° 0° (N) 10:10:05 435.103
PCSat 25 Nov 10:07:15 10:11:51 29° 252° (WSW) 10:16:26 145.827
PRISM 25 Nov 10:13:55 10:18:02 88° 77° (ENE) 10:22:11 437.425
EO-88 25 Nov 10:22:17 10:25:57 89° 102° (ESE) 10:29:36 145.990 - 145.960
DELFI C3 25 Nov 10:29:22 10:32:57 33° 287° (WNW) 10:36:30 145.870
Max Valier Satellite 25 Nov 10:35:22 10:38:46 37° 286° (WNW) 10:42:11 145.860
UNISAT 6 25 Nov 10:45:06 10:47:19 13° 266° (W) 10:49:31 437.425
TIGRISAT 25 Nov 10:48:01 10:50:17 14° 266° (W) 10:52:34 435.000
ESTCUBE 1 25 Nov 10:49:21 10:51:53 15° 94° (E) 10:54:24 437.505/2401.250
DUCHIFAT 1 25 Nov 10:55:06 10:57:49 17° 69° (ENE) 11:00:32 145.980
EO-79 25 Nov 11:07:21 11:11:06 32° 73° (ENE) 11:14:52 145.935-145.965
NANOSAT C BR1 25 Nov 11:07:30 11:11:05 28° 72° (ENE) 11:14:41 145.865
BEESAT 2 25 Nov 11:14:18 11:17:34 24° 55° (NE) 11:20:48 435.950
JUGNU 25 Nov 11:15:33 11:17:18 11° 162° (SSE) 11:19:02 437.505
POLYITAN 1 25 Nov 11:23:39 11:27:45 51° 75° (ENE) 11:31:51 437.675
AIST 2D 25 Nov 11:24:40 11:27:50 34° 262° (W) 11:31:01 435.315
BEESAT 3 25 Nov 11:28:13 11:32:01 52° 245° (WSW) 11:35:45 437.485
AO-85 25 Nov 11:36:01 11:39:33 20° 54° (NE) 11:43:14 145.980
FALCONSAT 3 25 Nov 11:42:06 11:45:48 79° 16° (NNE) 11:49:29 435.103
QB50P2 25 Nov 11:47:15 11:51:28 68° 259° (WSW) 11:55:42 145.880/145.840
O/OREOS (USA 219) 25 Nov 12:04:05 12:08:21 39° 104° (ESE) 12:12:38 437.305
LO-87 25 Nov 12:04:52 12:08:03 32° 286° (WNW) 12:11:12 145.935 - 145.965
Oscar 19 25 Nov 12:18:59 12:22:53 23° 68° (ENE) 12:26:48 437.125/150
NO-84 25 Nov 12:21:10 12:23:30 18° 121° (ESE) 12:25:59 435.350 FM
VELOX 1 25 Nov 12:23:55 12:27:31 24° 97° (E) 12:31:05 145.980
ESTCUBE 1 25 Nov 12:24:32 12:28:46 39° 287° (WNW) 12:32:58 437.505/2401.250
DUCHIFAT 1 25 Nov 12:29:29 12:33:12 30° 262° (W) 12:36:55 145.980
SPROUT 25 Nov 12:43:07 12:47:20 73° 102° (ESE) 12:51:32 437.525
NANOSAT C BR1 25 Nov 12:43:51 12:46:44 18° 265° (W) 12:49:38 145.865
EO-79 25 Nov 12:44:18 12:46:52 16° 265° (W) 12:49:27 145.935-145.965
BEESAT 2 25 Nov 12:52:05 12:55:08 21° 250° (WSW) 12:58:08 435.950
AO-7 25 Nov 12:59:29 13:01:15 11° 52° (NE) 13:03:01 .
AO-91 25 Nov 13:00:21 13:05:38 60° 75° (ENE) 13:10:55 145.960
JUGNU 25 Nov 13:01:23 13:05:40 21° 171° (S) 13:09:56 437.505
BUGSAT 1 25 Nov 13:02:05 13:06:13 57° 259° (W) 13:10:19 437.445
AO-85 25 Nov 13:15:27 13:20:06 44° 246° (WSW) 13:24:59 145.980
FALCONSAT 3 25 Nov 13:21:31 13:24:42 28° 208° (SSW) 13:27:53 435.103
Gurwin Techsat 1B 25 Nov 13:21:36 13:26:53 71° 75° (ENE) 13:32:11 435.225
UKube-1 25 Nov 13:26:33 13:28:54 14° 95° (E) 13:31:14 .
M-CUBED/EXP-1 PRIME 25 Nov 13:39:54 13:42:43 22° 65° (ENE) 13:45:42 437.505
O/OREOS (USA 219) 25 Nov 13:45:00 13:47:53 16° 299° (WNW) 13:50:45 437.305
Oscar 19 25 Nov 13:57:22 14:01:57 33° 262° (W) 14:06:33 437.125/150
NO-84 25 Nov 13:57:30 14:00:34 29° 318° (NW) 14:03:51 435.350 FM
50 SAT 25 Nov 13:58:16 14:01:28 84° 102° (ESE) 14:04:38 437.505
VELOX 1 25 Nov 14:00:16 14:03:48 23° 290° (WNW) 14:07:18 145.980
ITAMSAT 1 25 Nov 14:22:24 14:26:04 20° 67° (ENE) 14:29:45 435.822/435.867
DX 1 25 Nov 14:29:19 14:33:35 52° 286° (WNW) 14:37:48 434.975-435.025
BEESAT 25 Nov 14:38:47 14:40:43 12° 93° (E) 14:42:38 436.000
AO-91 25 Nov 14:39:33 14:42:17 14° 268° (W) 14:45:02 145.960
AO-7 25 Nov 14:44:16 14:52:24 65° 69° (ENE) 15:00:35 .
JUGNU 25 Nov 14:49:26 14:54:06 24° 181° (S) 14:58:44 437.505
ITUPSAT 1 25 Nov 14:50:50 14:53:56 17° 95° (E) 14:57:01 437.325
SRMSAT 25 Nov 14:55:58 14:59:17 15° 166° (SSE) 15:02:36 437.500
UKube-1 25 Nov 15:01:02 15:04:59 36° 287° (WNW) 15:08:55 .
Gurwin Techsat 1B 25 Nov 15:06:18 15:07:13 10° 268° (W) 15:08:07 435.225
YUBILEINY 25 Nov 15:11:01 15:16:53 19° 70° (ENE) 15:22:41 435.215
M-CUBED/EXP-1 PRIME 25 Nov 15:14:32 15:17:02 18° 261° (W) 15:19:40 437.505
RS-15 25 Nov 15:45:54 15:51:01 14° 97° (E) 15:56:07 29.354- 29.394
MOZHAYETS 4 25 Nov 15:52:03 15:56:34 61° 285° (WNW) 16:01:05
ITAMSAT 1 25 Nov 16:00:16 16:05:10 41° 260° (W) 16:10:06 435.822/435.867
DOVE 4 25 Nov 16:13:29 16:18:12 41° 73° (ENE) 16:23:06 437.250
BEESAT 25 Nov 16:14:05 16:18:41 51° 286° (WNW) 16:23:15 436.000
CUBESAT XI-V 25 Nov 16:16:53 16:21:27 50° 100° (E) 16:26:00 437.345
ITUPSAT 1 25 Nov 16:27:27 16:31:49 37° 288° (WNW) 16:36:10 437.325
CUTE-I 25 Nov 16:33:05 16:34:12 11° 63° (ENE) 16:35:19 437.470
JUGNU 25 Nov 16:38:32 16:42:30 19° 191° (S) 16:46:28 437.505
AO-7 25 Nov 16:39:31 16:45:33 22° 264° (W) 16:51:39 .
SRMSAT 25 Nov 16:43:16 16:47:49 23° 175° (S) 16:52:23 437.500
XW-2D 25 Nov 17:04:11 17:06:59 20° 72° (ENE) 17:09:48 145.860 - 145.880
YUBILEINY 25 Nov 17:05:37 17:14:26 75° 267° (W) 17:23:12 435.215
KKS-1 25 Nov 17:07:33 17:11:36 34° 99° (E) 17:15:37 437.445
NUDT-PHONESAT 25 Nov 17:12:13 17:14:29 16° 71° (ENE) 17:16:46 437.300
HO-68 25 Nov 17:12:26 17:16:43 17° 60° (ENE) 17:21:01 435.675
STARS 25 Nov 17:18:17 17:21:00 16° 95° (E) 17:23:42 437.465
XW-2B 25 Nov 17:18:40 17:21:56 30° 74° (ENE) 17:25:14 145.730 - 145.750
XW-2C 25 Nov 17:44:06 17:47:48 74° 79° (ENE) 17:51:32 145.795 - 145.815
RS-15 25 Nov 17:49:16 18:01:27 76° 113° (ESE) 18:13:43 29.354- 29.394
XW-2F 25 Nov 17:49:56 17:53:38 82° 76° (ENE) 17:57:21 145.980 - 146.000
DOVE 4 25 Nov 17:52:27 17:55:58 19° 267° (W) 17:59:34 437.250
LilacSat-2 25 Nov 17:52:33 17:56:17 75° 258° (WSW) 18:00:03 437.200
nSIGHT-1 25 Nov 17:54:45 17:57:31 27° 130° (SE) 18:00:19 .
CUBESAT XI-V 25 Nov 17:56:07 17:58:19 13° 293° (WNW) 18:00:31 437.345
CUTE 1.7 + AOD 2 25 Nov 18:06:44 18:10:16 27° 72° (ENE) 18:13:48 437.475
CUTE-I 25 Nov 18:08:07 18:13:29 80° 257° (WSW) 18:18:53 437.470
KAITUO 1B 25 Nov 18:08:50 18:12:29 71° 259° (W) 18:16:10 145.475/437.950
CUBEBUG 2 25 Nov 18:20:09 18:23:46 24° 72° (ENE) 18:27:19 437.445
SEEDS 25 Nov 18:27:03 18:30:34 27° 72° (ENE) 18:34:07 437.485
SRMSAT 25 Nov 18:31:52 18:36:25 23° 185° (S) 18:40:58 437.500
XW-2D 25 Nov 18:38:23 18:41:01 18° 265° (W) 18:43:40 145.860 - 145.880
KKS-1 25 Nov 18:44:59 18:47:49 17° 292° (WNW) 18:50:38 437.445
NUDT-PHONESAT 25 Nov 18:45:12 18:48:06 22° 264° (W) 18:51:00 437.300
ZACube-1 25 Nov 18:46:49 18:48:24 12° 68° (ENE) 18:49:57 437.345
XW-2A 25 Nov 18:47:18 18:49:33 17° 72° (ENE) 18:51:49 145.665 - 145.685
STARS 25 Nov 18:53:26 18:57:22 33° 288° (WNW) 19:01:16 437.465
XW-2B 25 Nov 18:54:35 18:56:08 12° 266° (W) 18:57:42 145.730 - 145.750
ISS 25 Nov 18:55:02 18:58:16 65° 317° (NW) 19:01:31 437.550
HO-68 25 Nov 18:56:25 19:03:35 77° 255° (WSW) 19:10:50 435.675
UWE-3 25 Nov 19:05:25 19:09:36 42° 75° (ENE) 19:13:41 435.000/436.395/437.385
STRAND 1 25 Nov 19:15:24 19:20:00 34° 98° (E) 19:24:35 437.568
nSIGHT-1 25 Nov 19:31:15 19:33:44 20° 324° (NW) 19:36:13 .
AO-73 25 Nov 19:31:57 19:35:53 37° 74° (ENE) 19:39:45 145.935
Oscar 11 25 Nov 19:42:32 19:46:20 32° 73° (ENE) 19:50:08 .
CUTE 1.7 + AOD 2 25 Nov 19:43:07 19:46:02 18° 265° (W) 19:48:57 437.475
AAUSAT CUBESAT 2 25 Nov 19:52:36 19:56:39 59° 260° (W) 20:00:45 437.432
CUBEBUG 2 25 Nov 19:56:31 20:00:14 24° 263° (W) 20:03:52 437.445
SEEDS 25 Nov 20:03:23 20:06:12 18° 265° (W) 20:09:02 437.485
RS-15 25 Nov 20:04:34 20:15:03 32° 315° (NW) 20:25:33 29.354- 29.394
FO-29 25 Nov 20:07:13 20:13:59 34° 95° (E) 20:20:10 435.910
XW-2A 25 Nov 20:19:58 20:22:06 16° 264° (W) 20:24:15 145.665 - 145.685
ZACube-1 25 Nov 20:20:07 20:24:15 45° 261° (W) 20:28:18 437.345
SRMSAT 25 Nov 20:21:43 20:24:57 15° 195° (SSW) 20:28:12 437.500
SO-50 25 Nov 20:29:09 20:33:35 88° 124° (SE) 20:38:05 436.795
NO-84 25 Nov 20:33:40 20:37:03 23° 40° (NE) 20:40:27 435.350 FM
UWE-3 25 Nov 20:44:16 20:46:09 12° 266° (W) 20:48:00 435.000/436.395/437.385
STRAND 1 25 Nov 20:55:03 20:58:55 22° 292° (WNW) 21:02:47 437.568
EO-88 25 Nov 20:56:02 20:58:25 17° 71° (ENE) 21:00:50 145.990 - 145.960
UNISAT 6 25 Nov 21:04:30 21:06:06 12° 93° (E) 21:07:41 437.425
TIGRISAT 25 Nov 21:07:30 21:08:56 11° 93° (E) 21:10:22 435.000
DELFI C3 25 Nov 21:08:56 21:12:51 65° 76° (ENE) 21:16:48 145.870
Max Valier Satellite 25 Nov 21:09:00 21:12:24 39° 75° (ENE) 21:15:49 145.860
AO-73 25 Nov 21:10:04 21:12:10 13° 266° (W) 21:14:16 145.935
Oscar 11 25 Nov 21:19:48 21:22:28 16° 266° (W) 21:25:08 .
FO-29 25 Nov 21:51:53 21:58:55 41° 292° (WNW) 22:05:25 435.910
PRISM 25 Nov 22:00:51 22:03:34 17° 95° (E) 22:06:15 437.425
NO-84 25 Nov 22:10:31 22:14:31 40° 234° (SW) 22:18:26 435.350 FM
O/OREOS (USA 219) 25 Nov 22:18:51 22:22:59 34° 66° (ENE) 22:27:03 437.305
EO-88 25 Nov 22:29:08 22:31:52 20° 264° (W) 22:34:38 145.990 - 145.960
RS-15 25 Nov 22:31:19 22:33:30 11° 348° (NNW) 22:35:41 29.354- 29.394
LO-87 25 Nov 22:35:29 22:38:50 38° 75° (ENE) 22:42:12 145.935 - 145.965
UNISAT 6 25 Nov 22:38:56 22:42:56 41° 286° (WNW) 22:46:57 437.425
TIGRISAT 25 Nov 22:41:46 22:45:46 42° 286° (WNW) 22:49:47 435.000
AIST 2D 25 Nov 22:54:08 22:56:52 21° 96° (E) 22:59:35 435.315
PCSat 25 Nov 22:59:58 23:05:20 72° 113° (ESE) 23:10:45 145.827
POLYITAN 1 25 Nov 23:15:06 23:16:38 12° 93° (E) 23:18:09 437.675
VELOX 1 25 Nov 23:18:03 23:19:56 13° 67° (ENE) 23:21:49 145.980
ESTCUBE 1 25 Nov 23:18:37 23:23:05 79° 257° (WSW) 23:27:35 437.505/2401.250
SPROUT 25 Nov 23:31:43 23:35:24 29° 72° (ENE) 23:39:05 437.525
PRISM 25 Nov 23:35:14 23:38:47 28° 288° (WNW) 23:42:20 437.425
QB50P2 25 Nov 23:37:06 23:40:38 26° 97° (E) 23:44:09 145.880/145.840
O/OREOS (USA 219) 25 Nov 23:59:13 00:02:02 16° 260° (W) 00:04:49 437.305
